Starlink 31880

operational
NORAD ID: 59661 Int'l Des: 2024-084 Owner: SPXS Country: US Constellation: starlink
LEOCIRCULAR

About Starlink 31880

Description loading...

Live Position

Loading 3D Globe...

Upcoming Passes

Altitude History

Altitude vs Time

uPlot chart will show altitude changes over time

Two-Line Element Set

1 59661U 24084H 25259.49232780 .00001522 00000-0 64795-4 0 9998
2 59661 43.0003 301.9656 0000974 281.1987 78.8755 15.27582583 77779
Epoch: Sep 16, 2025 • Age: 21 hours

Current Status

Altitude 483.2 km
Velocity 7.63 km/s
Sub-Earth Point 23.16°N, 39.38°W
Launch Date May 6, 2024
Age 1.3 years
Type internet

Technical Details

Classification Payload
Mass 730.00 kg
Dry Mass 700.00 kg
Total Mass 730.00 kg
Length 0.30 m
Diameter 4.10 m
Span 29.00 m
Shape Box + pan
Manufacturer SPXS
Bus Type Starlink V2M
Phase Status In Orbit
Owner/State SPXS/US

Large Constellations

Loading constellations...